• In Czech Republic
  • List of Countries
  • For 7 days
  • Water Temperature
  • Satellite Maps
  • Weather Map
  • Weather Widgets
  • user-avatar
    Login

    Hourly Weather Frankfort

    Today, 20 February, Tuesday

    Time Temperature Precipitation Wind Pressure Humidity
    00:00 +18°C° 0 mm 4 mps 744 mmHg 85%
    01:00 +17°C° 0 mm 5 mps 745 mmHg 85%
    02:00 +17°C° 0 mm 5 mps 745 mmHg 85%
    03:00 +17°C° 0 mm 5 mps 745 mmHg 84%
    04:00 +16°C° 0 mm 5 mps 745 mmHg 86%
    05:00 +16°C° 0 mm 5 mps 745 mmHg 87%
    06:00 +16°C° 0 mm 5 mps 746 mmHg 88%
    07:00 +17°C° 0 mm 6 mps 746 mmHg 84%
    08:00 +18°C° 0 mm 7 mps 746 mmHg 79%
    09:00 +20°C° 0 mm 8 mps 747 mmHg 74%
    10:00 +21°C° 0 mm 8 mps 746 mmHg 70%
    11:00 +22°C° 0 mm 8 mps 746 mmHg 66%
    12:00 +24°C° 0 mm 8 mps 746 mmHg 62%
    13:00 +24°C° 0 mm 7 mps 746 mmHg 63%
    14:00 +24°C° 0 mm 7 mps 746 mmHg 64%
    15:00 +24°C° 0 mm 7 mps 746 mmHg 66%
    16:00 +22°C° 0 mm 6 mps 746 mmHg 71%
    17:00 +21°C° 0 mm 6 mps 746 mmHg 76%
    18:00 +20°C° 0 mm 5 mps 746 mmHg 82%
    19:00 +19°C° 0 mm 5 mps 746 mmHg 83%
    20:00 +19°C° 0 mm 6 mps 746 mmHg 84%
    21:00 +19°C° 0 mm 6 mps 746 mmHg 85%
    22:00 +19°C° 0 mm 6 mps 746 mmHg 85%
    23:00 +19°C° 0 mm 6 mps 746 mmHg 85%

    Tomorrow, 21 February, Wednesday

    Time Temperature Precipitation Wind Pressure Humidity
    00:00 +19°C° 0 mm 6 mps 746 mmHg 86%
    01:00 +19°C° 0 mm 6 mps 746 mmHg 86%
    02:00 +18°C° 0 mm 7 mps 746 mmHg 86%
    03:00 +18°C° 0 mm 7 mps 746 mmHg 86%
    04:00 +18°C° 0.3 mm 7 mps 746 mmHg 86%
    05:00 +20°C° 0.3 mm 6 mps 746 mmHg 86%
    06:00 +20°C° 0.3 mm 6 mps 747 mmHg 87%
    07:00 +19°C° 1.1 mm 6 mps 747 mmHg 86%
    08:00 +17°C° 1.1 mm 5 mps 748 mmHg 86%
    09:00 +16°C° 1.1 mm 5 mps 749 mmHg 86%
    10:00 +15°C° 0.4 mm 4 mps 750 mmHg 86%
    11:00 +13°C° 0.4 mm 4 mps 750 mmHg 87%
    12:00 +12°C° 0.4 mm 4 mps 750 mmHg 87%
    13:00 +11°C° 0.3 mm 4 mps 750 mmHg 88%
    14:00 +10°C° 0.3 mm 4 mps 750 mmHg 89%
    15:00 +8°C° 0.3 mm 4 mps 750 mmHg 90%
    16:00 +8°C° 0.9 mm 4 mps 751 mmHg 90%
    17:00 +7°C° 0.9 mm 4 mps 751 mmHg 91%
    18:00 +7°C° 0.9 mm 4 mps 751 mmHg 92%
    19:00 +7°C° 1.4 mm 4 mps 751 mmHg 92%
    20:00 +7°C° 1.4 mm 4 mps 752 mmHg 92%
    21:00 +7°C° 1.4 mm 4 mps 752 mmHg 93%
    22:00 +6°C° 3.4 mm 4 mps 751 mmHg 93%
    23:00 +6°C° 3.4 mm 5 mps 751 mmHg 93%

    Day after tomorrow, 22 February, Thursday

    Time Temperature Precipitation Wind Pressure Humidity
    00:00 +6°C° 3.4 mm 5 mps 751 mmHg 94%
    01:00 +6°C° 2.9 mm 5 mps 751 mmHg 94%
    02:00 +6°C° 2.9 mm 5 mps 750 mmHg 94%
    03:00 +6°C° 2.9 mm 4 mps 750 mmHg 94%
    04:00 +6°C° 0.8 mm 4 mps 750 mmHg 94%
    05:00 +6°C° 0.8 mm 4 mps 750 mmHg 94%
    06:00 +7°C° 0.8 mm 3 mps 750 mmHg 94%
    07:00 +6°C° 0.1 mm 4 mps 751 mmHg 94%
    08:00 +5°C° 0.1 mm 4 mps 751 mmHg 93%
    09:00 +5°C° 0.1 mm 4 mps 752 mmHg 93%
    10:00 +6°C° 0 mm 4 mps 752 mmHg 91%
    11:00 +8°C° 0 mm 3 mps 752 mmHg 90%
    12:00 +9°C° 0 mm 3 mps 752 mmHg 89%
    13:00 +9°C° 0 mm 3 mps 751 mmHg 89%
    14:00 +9°C° 0 mm 2 mps 751 mmHg 89%
    15:00 +9°C° 0 mm 2 mps 750 mmHg 89%
    16:00 +9°C° 0 mm 2 mps 751 mmHg 91%
    17:00 +9°C° 0 mm 2 mps 751 mmHg 93%
    18:00 +8°C° 0 mm 2 mps 751 mmHg 95%
    19:00 +8°C° 0 mm 2 mps 751 mmHg 95%
    20:00 +8°C° 0 mm 2 mps 751 mmHg 94%
    21:00 +8°C° 0 mm 2 mps 751 mmHg 94%
    22:00 +8°C° 0 mm 2 mps 751 mmHg 95%
    23:00 +8°C° 0 mm 2 mps 750 mmHg 96%

    23 February, Friday

    Time Temperature Precipitation Wind Pressure Humidity
    00:00 +8°C° 0 mm 2 mps 750 mmHg 96%
    01:00 +9°C° 0 mm 2 mps 750 mmHg 97%
    02:00 +10°C° 0 mm 2 mps 749 mmHg 97%
    03:00 +11°C° 0 mm 1 mps 749 mmHg 97%
    04:00 +12°C° 0.4 mm 2 mps 748 mmHg 98%
    05:00 +13°C° 0.4 mm 2 mps 748 mmHg 98%
    06:00 +13°C° 0.4 mm 3 mps 748 mmHg 98%
    07:00 +15°C° 0.7 mm 4 mps 748 mmHg 96%
    08:00 +16°C° 0.7 mm 5 mps 748 mmHg 94%
    09:00 +19°C° 0.7 mm 6 mps 747 mmHg 92%
    10:00 +19°C° 0.3 mm 6 mps 747 mmHg 90%
    11:00 +20°C° 0.3 mm 6 mps 747 mmHg 88%
    12:00 +21°C° 0.3 mm 6 mps 746 mmHg 86%
    13:00 +21°C° 0.5 mm 6 mps 746 mmHg 85%
    14:00 +21°C° 0.5 mm 5 mps 746 mmHg 84%
    15:00 +21°C° 0.5 mm 5 mps 746 mmHg 83%
    16:00 +20°C° 0.6 mm 4 mps 745 mmHg 86%
    17:00 +19°C° 0.6 mm 3 mps 745 mmHg 89%
    18:00 +17°C° 0.6 mm 2 mps 745 mmHg 92%
    19:00 +17°C° 0.8 mm 2 mps 745 mmHg 93%
    20:00 +17°C° 0.8 mm 2 mps 745 mmHg 94%
    21:00 +17°C° 0.8 mm 2 mps 745 mmHg 94%
    22:00 +17°C° 0.5 mm 2 mps 744 mmHg 95%
    23:00 +17°C° 0.5 mm 2 mps 744 mmHg 95%

    24 February, Saturday

    Time Temperature Precipitation Wind Pressure Humidity
    00:00 +16°C° 0.5 mm 2 mps 743 mmHg 95%
    01:00 +16°C° 2.1 mm 2 mps 742 mmHg 96%
    02:00 +16°C° 2.1 mm 2 mps 742 mmHg 96%
    03:00 +16°C° 2.1 mm 2 mps 741 mmHg 97%
    04:00 +17°C° 3.5 mm 3 mps 741 mmHg 96%
    05:00 +17°C° 3.5 mm 4 mps 741 mmHg 96%
    06:00 +17°C° 3.5 mm 4 mps 740 mmHg 95%
    07:00 +16°C° 4.4 mm 5 mps 740 mmHg 94%
    08:00 +17°C° 4.4 mm 5 mps 740 mmHg 93%
    09:00 +17°C° 4.4 mm 5 mps 740 mmHg 92%
    10:00 +17°C° 2.1 mm 5 mps 740 mmHg 91%
    11:00 +19°C° 2.1 mm 5 mps 739 mmHg 90%
    12:00 +19°C° 2.1 mm 6 mps 739 mmHg 90%
    13:00 +20°C° 0.6 mm 6 mps 738 mmHg 88%
    14:00 +20°C° 0.6 mm 6 mps 738 mmHg 87%
    15:00 +20°C° 0.6 mm 6 mps 738 mmHg 85%
    16:00 +20°C° 1.1 mm 6 mps 738 mmHg 88%
    17:00 +19°C° 1.1 mm 5 mps 737 mmHg 90%
    18:00 +18°C° 1.1 mm 4 mps 737 mmHg 92%
    19:00 +18°C° 0.8 mm 4 mps 737 mmHg 93%
    20:00 +18°C° 0.8 mm 4 mps 736 mmHg 93%
    21:00 +17°C° 0.8 mm 4 mps 736 mmHg 94%
    22:00 +17°C° 2.6 mm 5 mps 734 mmHg 93%
    23:00 +17°C° 2.6 mm 6 mps 733 mmHg 93%

    25 February, Sunday

    Time Temperature Precipitation Wind Pressure Humidity
    00:00 +17°C° 2.6 mm 7 mps 732 mmHg 93%
    01:00 +18°C° 2.4 mm 7 mps 731 mmHg 92%
    02:00 +18°C° 2.4 mm 8 mps 730 mmHg 90%
    03:00 +18°C° 2.4 mm 8 mps 729 mmHg 89%
    04:00 +16°C° 1.1 mm 8 mps 730 mmHg 84%
    05:00 +15°C° 1.1 mm 8 mps 730 mmHg 78%
    06:00 +12°C° 1.1 mm 8 mps 730 mmHg 73%
    07:00 +10°C° 0 mm 9 mps 732 mmHg 73%
    08:00 +8°C° 0 mm 10 mps 734 mmHg 73%
    09:00 +7°C° 0 mm 10 mps 735 mmHg 73%
    10:00 +7°C° 0 mm 10 mps 736 mmHg 71%
    11:00 +8°C° 0 mm 9 mps 738 mmHg 69%
    12:00 +8°C° 0 mm 9 mps 739 mmHg 67%
    13:00 +10°C° 0 mm 8 mps 740 mmHg 67%
    14:00 +10°C° 0 mm 7 mps 741 mmHg 66%
    15:00 +10°C° 0 mm 6 mps 741 mmHg 66%
    16:00 +9°C° 0 mm 5 mps 742 mmHg 71%
    17:00 +9°C° 0 mm 3 mps 742 mmHg 76%
    18:00 +8°C° 0 mm 2 mps 743 mmHg 81%
    19:00 +7°C° 0 mm 2 mps 743 mmHg 83%
    20:00 +7°C° 0 mm 2 mps 744 mmHg 84%
    21:00 +7°C° 0 mm 1 mps 744 mmHg 86%
    22:00 +7°C° 0 mm 1 mps 744 mmHg 87%
    23:00 +6°C° 0 mm 1 mps 745 mmHg 88%
    Show more